Location: *
(43.7000°S, 168.7000°W)
Time: 14:38:17
(UTC+00:00)

Cosmos 1726 - Pass Details

Date: 07 July 2020
Orbit: 481 x 500 km, 82.5° (Epoch: 03 August)

Event Time Altitude Azimuth Distance (km) Brightness Sun altitude
Exits shadow 18:04:59 -1° 197° (SSW) 2,676 5.4 -7.7°
Rises 18:05:09 0° 197° (SSW) 2,603 5.4 -7.6°
Reaches altitude 10° 18:07:23 10° 205° (SSW) 1,715 4.4 -7.3°
Maximum altitude 18:10:51 36° 272° (W) 801 2.7 -6.7°
Drops below altitude 10° 18:14:18 10° 340° (NNW) 1,699 4.9 -6.1°
Sets 18:16:30 0° 348° (NNW) 2,576 5.9 -5.8°
